Content
SEND FEEDBACK

Daily
Averages
Monthly
Summary
France

LE HAVRE, FRANCE


Home > Europe > France
Elevation: 338 feet     Latitude: 49 31N     Longitude: 000 04E

WEATHER
 
SELECT A DAY
Number of Records: 185,869;   Date Range: 3/4/97 - 11/23/14
 
SHARE

PRINT THIS DATA

[ ← Previous Day ]
WEATHER ALMANAC - MARCH 22, 2013
[ Next Day → ]
[ °C ]   °F
Weather ElementAverageHighLow
Temperature48 °F53.6 °F (2:30 pm)42.8 °F (2:30 am)
Dewpoint37.9 °F41 °F (12:30 am)35.6 °F (8:00 am)
Humidity69.3 %93 % (2:30 am)54 % (1:00 pm)
Barometer29.67 in29.83 in (12:30 am)29.56 in (3:00 pm)
Wind Speed16.2 mph19.6 mph (9:00 am)
Wind Gust31.1 mph (12:30 pm)
Weather ElementAverage
Visibility5.2 mi
Wind DirectionESE (114 °)

Weather ElementTotal
Precipitation---
Heating Degree Days16.8 (Base 65)
Averaged from 47 records on March 22, 2013
WEATHER CONDITIONS BREAKOUT
WIND DIRECTION BREAKOUT
WEATHER BY HOUR - MARCH 22, 2013
[ °C ]   °F
Local TimeTemperatureDewpointHumidityBarometerVisibilityWind DirectionWind SpeedGust SpeedPrecipitationEventsConditions
12:30 AM44.6 °F41.0 °F87 %29.83 in1.6 miESE (120°)15.0 mphOvercast
1:00 AM44.6 °F41.0 °F87 %29.83 in1.7 miESE (120°)16.1 mphRainLight Rain
1:30 AM44.6 °F41.0 °F87 %29.83 in1.7 miESE (110°)13.8 mphRainLight Rain
2:00 AM44.6 °F41.0 °F87 %29.83 inESE (120°)15.0 mphOvercast
2:30 AM42.8 °F41.0 °F93 %29.80 inESE (120°)17.3 mphMostly Cloudy
3:00 AM42.8 °F41.0 °F93 %29.80 in2.2 miESE (110°)17.3 mphMist
3:30 AM42.8 °F39.2 °F87 %29.77 inESE (110°)15.0 mphMist
4:00 AM42.8 °F39.2 °F87 %29.77 inESE (110°)16.1 mphMist
4:30 AM42.8 °F39.2 °F87 %29.77 inESE (110°)15.0 mphMist
5:00 AM42.8 °F39.2 °F87 %29.74 inESE (110°)13.8 mphMist
5:30 AM42.8 °F39.2 °F87 %29.74 in2.8 miESE (110°)13.8 mphMist
6:00 AM42.8 °F37.4 °F81 %29.71 in3.1 miESE (110°)16.1 mphMist
6:30 AM42.8 °F37.4 °F81 %29.71 in3.1 miESE (110°)15.0 mphMist
7:00 AM42.8 °F37.4 °F81 %29.71 in3.1 miESE (110°)17.3 mphMist
7:30 AM42.8 °F37.4 °F81 %29.71 in3.7 miESE (110°)17.3 mph
8:00 AM42.8 °F35.6 °F76 %29.71 in4.3 miESE (110°)18.4 mph
8:30 AM42.8 °F35.6 °F76 %29.68 in4.3 miESE (110°)18.4 mph
9:00 AM42.8 °F37.4 °F81 %29.71 in5.0 miESE (120°)19.6 mph
9:30 AM44.6 °F37.4 °F76 %29.68 in5.6 miESE (120°)19.6 mph
10:00 AM46.4 °F37.4 °F71 %29.68 in6.2 miESE (120°)19.6 mph
10:30 AM46.4 °F37.4 °F71 %29.65 in6.2 miESE (120°)19.6 mph
11:00 AM46.4 °F37.4 °F71 %29.65 in6.2 miESE (120°)15.0 mph
11:30 AM48.2 °F37.4 °F66 %29.65 in6.2 miESE (120°)18.4 mph
12:00 PM48.2 °F37.4 °F66 %29.65 in6.2 miESE (110°)17.3 mph28.8 mph
12:30 PM50.0 °F37.4 °F62 %29.65 in6.2 miESE (120°)18.4 mph31.1 mph
1:00 PM51.8 °F35.6 °F54 %29.62 in6.2 miESE (120°)19.6 mph
1:30 PM51.8 °F35.6 °F54 %29.62 in6.2 miESE (120°)16.1 mph
2:00 PM51.8 °F37.4 °F58 %29.62 in6.2 miESE (120°)19.6 mph
2:30 PM53.6 °F37.4 °F54 %29.59 in6.2 miESE (110°)19.6 mph
3:00 PM53.6 °F37.4 °F54 %29.56 in6.2 miESE (120°)18.4 mph
3:30 PM53.6 °F37.4 °F54 %29.59 in6.2 miEast (100°)18.4 mph
4:00 PM53.6 °F37.4 °F54 %29.56 in6.2 miESE (110°)15.0 mph
4:30 PM53.6 °F37.4 °F54 %29.56 in6.2 miESE (110°)16.1 mph
5:00 PM53.6 °F37.4 °F54 %29.56 in6.2 miESE (110°)13.8 mph
5:30 PM53.6 °F37.4 °F54 %29.56 in6.2 miESE (120°)19.6 mphMostly Cloudy
6:00 PM53.6 °F37.4 °F54 %29.56 in6.2 miESE (120°)16.1 mph
6:30 PM53.6 °F37.4 °F54 %29.59 in6.2 miESE (120°)13.8 mph
7:00 PM53.6 °F37.4 °F54 %29.59 in6.2 miESE (120°)16.1 mph
7:30 PM53.6 °F37.4 °F54 %29.59 in6.2 miESE (120°)17.3 mph
8:00 PM51.8 °F37.4 °F58 %29.62 in6.2 miESE (120°)15.0 mph
8:30 PM51.8 °F37.4 °F58 %29.62 in6.2 miESE (110°)12.7 mph
9:00 PM51.8 °F37.4 °F58 %29.62 in6.2 miESE (110°)13.8 mph
9:30 PM50.0 °F37.4 °F62 %29.62 in6.2 miEast (100°)12.7 mph
10:00 PM50.0 °F37.4 °F62 %29.62 in6.2 miEast (100°)13.8 mph
10:30 PM50.0 °F37.4 °F62 %29.62 in5.6 miEast (100°)13.8 mph
11:00 PM50.0 °F37.4 °F62 %29.62 in6.2 miESE (120°)11.5 mph
11:30 PM50.0 °F39.2 °F66 %29.62 in5.6 miESE (120°)11.5 mph
Hourly data recorded from LFOH, located miles away from Le Havre, France







STORIES FROM OUR PARTNERS